Subpeak Weather - Last Hour


View Last Hour    View Last 24 Hours

Time
Avg. Air Temp
Dew Point
Avg. Rel Humidity
Avg. 2 Min Wind Speed
Max Gust Velocity
MGV Time
MGV Direction
Avg. Spot Wind Velocity
2014-10-02 01:20:00-5° C-8° C80%18 km/h25 km/h2014-10-02 01:18:10NW18 km/h
2014-10-02 01:15:00-5° C-8° C80%16 km/h22 km/h2014-10-02 01:11:00NW17 km/h
2014-10-02 01:10:00-5° C-8° C80%17 km/h22 km/h2014-10-02 01:09:10NW17 km/h
2014-10-02 01:05:00-5° C-8° C80%16 km/h25 km/h2014-10-02 01:02:10N17 km/h
2014-10-02 01:00:00-5° C-8° C80%20 km/h23 km/h2014-10-02 00:56:00NW17 km/h
2014-10-02 00:55:00-5° C-8° C80%19 km/h23 km/h2014-10-02 00:55:10NW17 km/h
2014-10-02 00:50:00-5° C-8° C80%14 km/h24 km/h2014-10-02 00:48:10NW18 km/h
2014-10-02 00:45:00-5° C-8° C80%16 km/h25 km/h2014-10-02 00:45:10NW16 km/h
2014-10-02 00:40:00-5° C-8° C80%15 km/h23 km/h2014-10-02 00:38:10NW18 km/h
2014-10-02 00:35:00-5° C-8° C80%17 km/h23 km/h2014-10-02 00:31:00N16 km/h
2014-10-02 00:30:00-5° C-8° C80%18 km/h25 km/h2014-10-02 00:29:10NW17 km/h
2014-10-02 00:25:00-5° C-8° C80%19 km/h25 km/h2014-10-02 00:21:00NW18 km/h
2014-10-02 00:20:00-4° C-7° C81%19 km/h29 km/h2014-10-02 00:17:10NW21 km/h
2014-10-02 00:15:00-4° C-7° C81%17 km/h25 km/h2014-10-02 00:15:10NW18 km/h
2014-10-02 00:10:00-4° C-7° C81%19 km/h31 km/h2014-10-02 00:08:10NW18 km/h
2014-10-02 00:05:00-4° C-7° C81%13 km/h26 km/h2014-10-02 00:05:10NW16 km/h
2014-10-02 00:00:00-4° C-7° C81%15 km/h25 km/h2014-10-01 23:57:10NW14 km/h
2014-10-01 23:55:00-4° C-7° C81%14 km/h23 km/h2014-10-01 23:53:10W15 km/h
2014-10-01 23:50:00-4° C-7° C81%19 km/h25 km/h2014-10-01 23:46:00NW20 km/h
2014-10-01 23:45:00-4° C-7° C81%19 km/h27 km/h2014-10-01 23:45:10NW17 km/h